TimePDT,TemperatureF,Dew PointF,Humidity,Sea Level PressureIn,VisibilityMPH,Wind Direction,Wind SpeedMPH,Gust SpeedMPH,PrecipitationIn,Events,Conditions,WindDirDegrees,DateUTC
12:55 AM,48.9,46.0,90,29.95,10.0,West,4.6,-,N/A,,Overcast,260,2013-05-16 07:55:00
1:55 AM,48.0,45.0,89,29.94,10.0,Calm,Calm,-,N/A,,Overcast,0,2013-05-16 08:55:00
2:55 AM,46.9,45.0,93,29.92,10.0,Calm,Calm,-,N/A,,Mostly Cloudy,0,2013-05-16 09:55:00
3:55 AM,46.0,44.1,93,29.93,10.0,Calm,Calm,-,N/A,,Scattered Clouds,0,2013-05-16 10:55:00
4:55 AM,45.0,44.1,97,29.91,10.0,Calm,Calm,-,N/A,,Overcast,0,2013-05-16 11:55:00
5:55 AM,46.0,44.1,93,29.91,10.0,West,8.1,-,0.00,Rain,Light Rain,260,2013-05-16 12:55:00
6:55 AM,46.0,44.1,93,29.94,9.0,WSW,5.8,-,0.02,Rain,Light Rain,250,2013-05-16 13:55:00
7:55 AM,46.0,44.1,93,29.94,7.0,WNW,5.8,-,0.06,Rain,Light Rain,290,2013-05-16 14:55:00
8:55 AM,46.0,43.0,89,29.95,6.0,NW,5.8,-,0.08,Rain,Light Rain,310,2013-05-16 15:55:00
9:55 AM,46.0,42.1,86,29.95,6.0,NNW,8.1,-,0.07,Rain,Light Rain,330,2013-05-16 16:55:00
10:55 AM,46.9,41.0,80,29.95,10.0,North,4.6,-,0.03,Rain,Light Rain,360,2013-05-16 17:55:00
11:55 AM,48.9,42.1,77,29.94,10.0,Calm,Calm,-,0.01,Rain,Light Rain,0,2013-05-16 18:55:00
12:20 PM,48.2,42.8,82,29.98,10.0,Calm,Calm,-,0.00,Rain,Light Rain,0,2013-05-16 19:20:00
12:55 PM,51.1,43.0,74,29.92,10.0,Calm,Calm,-,0.00,,Overcast,0,2013-05-16 19:55:00
1:10 PM,51.8,42.8,71,29.96,10.0,Calm,Calm,-,N/A,,Overcast,0,2013-05-16 20:10:00
1:19 PM,50.0,42.8,76,29.96,10.0,Calm,Calm,-,N/A,,Overcast,0,2013-05-16 20:19:00
1:26 PM,51.8,42.8,71,29.96,10.0,Variable,3.5,-,0.00,Rain,Light Rain,0,2013-05-16 20:26:00
1:55 PM,52.0,42.1,69,29.91,10.0,Calm,Calm,-,0.00,,Overcast,0,2013-05-16 20:55:00
2:32 PM,53.6,42.8,67,29.94,10.0,Calm,Calm,-,0.00,,Overcast,0,2013-05-16 21:32:00
3:55 PM,48.9,44.1,83,29.91,10.0,WNW,10.4,-,0.05,Rain,Light Rain,300,2013-05-16 22:55:00
4:52 PM,48.2,42.8,82,29.95,2.5,WNW,15.0,21.9,0.01,Rain,Heavy Rain,300,2013-05-16 23:52:00
4:55 PM,46.9,43.0,86,29.92,1.8,NW,12.7,21.9,0.06,Rain,Heavy Rain,310,2013-05-16 23:55:00
5:02 PM,46.4,42.8,87,29.94,3.0,NW,11.5,-,0.04,Rain,Light Rain,320,2013-05-17 00:02:00
5:55 PM,48.0,45.0,89,29.92,10.0,WSW,6.9,-,0.05,Rain,Light Rain,250,2013-05-17 00:55:00
6:55 PM,48.0,43.0,83,29.91,10.0,Calm,Calm,-,0.01,,Overcast,0,2013-05-17 01:55:00
7:55 PM,48.0,44.1,86,29.91,10.0,Calm,Calm,-,0.00,,Overcast,0,2013-05-17 02:55:00
8:55 PM,48.0,44.1,86,29.91,10.0,South,3.5,-,N/A,,Overcast,190,2013-05-17 03:55:00
9:55 PM,48.0,43.0,83,29.93,10.0,SW,3.5,-,0.00,,Overcast,230,2013-05-17 04:55:00
10:55 PM,46.9,44.1,90,29.93,10.0,Calm,Calm,-,N/A,,Overcast,0,2013-05-17 05:55:00
11:55 PM,46.9,44.1,90,29.93,10.0,Calm,Calm,-,N/A,,Overcast,0,2013-05-17 06:55:00